Tracking 29892 objects as of 21-Nov-2024
HD Live streaming from Space Station
objects crossing your sky now

CZ-6A DEB

Track CZ-6A DEB now!
10-day predictions


NORAD ID: 54619
Int'l Code: 2022-151NV
Perigee: 724.4 km
Apogee: 830.6 km
Inclination: 98.9 °
Period: 100.2 minutes
Semi major axis: 7148 km
RCS: Unknown
Launch date: November 11, 2022
Source: People's Republic of China (PRC)
Launch site: Taiyaun Space Center, China (TSC)

Note: This is SATELLITE DEBRIS
Your satellite tracking list
Your tracking list is empty




NASA's NSSDC Master Catalog

Two Line Element Set (TLE):
1 54619U 22151NV  24325.90998160  .00004264  00000-0  14248-2 0  9991
2 54619  98.8580   1.0022 0074280 289.6453  69.6726 14.36428388104703
Source of the keplerian elements: AFSPC